SVMC/MAR METAR and TAF weather

Enter ICAO airport designator
Station Type Date Time Source
SVMC METAR 2021/07/04 21:03 UTC NOAA

SVMC 042103Z AUTO 00000KT NCD 34/// Q////


Station Type Date Time Source
SVMC Decoded METAR 2021/07/04 21:03 UTC NOAA

Maracaibo-La Chinita, Venezuela (SVMC) 10-34N 071-44W 65M
Jul 04, 2021 - 05:03 PM EDT / 2021.07.04 2103 UTC
Wind: Calm:0
Temperature: 93 F (34 C)
ob: SVMC 042103Z AUTO 00000KT NCD 34/// Q////
cycle: 21

Station Type Date Time Source
SVMC TAF 2022/06/30 18:57 UTC NOAA

TAF SVMC 301600Z 3018/0118 08002KT 9999 SCT013 TX33/3019Z TN23/0108Z PROB30
TEMPO 3018/3022 11005KT 9000 -DZ SCT016 BKN080

Example: see airport list